Find Starlink 1763

NORAD ID: 46364 Int'l Des: 2020-062 Owner: SPXS Country: US Constellation: starlink decayed
LEOCIRCULAR
Vis

Historical Track — Mar 3, 2025

3D地球を読み込み中...

Starlink 1763について

説明を読み込み中...

高度履歴

Loading altitude history...

軌道要素

1 46364U 20062AR 25061.72529284 .14883987 12473-4 89232-3 0 9992
2 46364 53.0255 138.9989 0005271 320.3816 180.5595 16.41526069249840
Epoch: Mar 2, 2025 • Age: 10410 hours

現在のステータス

Position data unavailable
打ち上げ日 Sep 3, 2020
運用期間 5.6 years
落下予定日 Mar 3, 2025
タイプ internet

技術仕様

分類 Payload
質量 260.00 kg
乾燥質量 248.00 kg
総質量 260.00 kg
長さ 0.20 m
直径 2.80 m
スパン 9.00 m
形状 Box + pan
製造者 SPXS
バスタイプ Starlink
フェーズステータス Unknown Transfer Status
所有者/国 SPXS/US

Most Searched